Ruidoso, NM

2:50 AM MDT on April 27, 2018 (GMT -0600)
Sierra Blanca Regional

Weather History for KSRR - December, 2013

Change the Weather History Date:

Friday, December 20, 2013

  Actual Average Record
Temperature  
Mean Temperature 39 °F -  
Max Temperature 46 °F 43 °F 62 °F (2001)
Min Temperature 32 °F 24 °F 15 °F (2012)
Degree Days  
Heating Degree Days 26    
Moisture  
Dew Point 24 °F    
Average Humidity 58    
Maximum Humidity 93    
Minimum Humidity 25    
Precipitation  
Precipitation 0.00 in - - ()
Sea Level Pressure  
Sea Level Pressure 29.77 in    
Wind  
Wind Speed 12 mph (SSW)    
Max Wind Speed 23 mph    
Max Gust Speed 29 mph    
Visibility 10 miles    
Events      
Averages and records for this station are not official NWS values.
T = Trace of Precipitation, MM = Missing Value Source: NWS Daily Summary

Daily Weather History Graph

Daily Weather History Graph

Search for Another Location

Airport or City:

Astronomy

Dec. 20, 2013 Rise Set
Actual Time 7:01 AM MST 4:58 PM MST
Civil Twilight 6:34 AM MST 5:25 PM MST
Nautical Twilight 6:03 AM MST 5:56 PM MST
Astronomical Twilight 5:32 AM MST 6:27 PM MST
Moon 8:12 PM MST (12/20) 9:04 AM MST (12/20)
Length of Visible Light 10h 51m
Length of Day
9h 56m
Waning Gibbous, 90% of the Moon is Illuminated
Dec 20
Waning Gibbous
Dec 25
Last Quarter
Jan 1
New
Jan 7
First Quarter
Jan 15
Full

Hourly Weather History & Observations

Time (MST) Temp. Windchill Dew Point Humidity Pressure Visibility Wind Dir Wind Speed Gust Speed Precip Events Conditions
12:15 AM 44.6 °F 37.8 °F 12.2 °F 27% 29.84 in 10.0 mi West 15.0 mph 20.7 mph N/A   Clear
12:35 AM 44.6 °F 37.8 °F 12.2 °F 27% 29.83 in 10.0 mi West 15.0 mph 24.2 mph N/A   Clear
12:55 AM 44.6 °F 37.8 °F 10.4 °F 25% 29.83 in 10.0 mi West 15.0 mph 26.5 mph N/A   Clear
1:15 AM 44.6 °F 36.4 °F 12.2 °F 27% 29.83 in 10.0 mi WSW 20.7 mph 28.8 mph N/A   Clear
1:35 AM 44.6 °F 37.2 °F 14.0 °F 29% 29.83 in 10.0 mi West 17.3 mph 27.6 mph N/A   Clear
1:55 AM 42.8 °F 35.1 °F 14.0 °F 31% 29.83 in 10.0 mi West 16.1 mph 20.7 mph N/A   Clear
2:15 AM 42.8 °F 37.0 °F 14.0 °F 31% 29.84 in 10.0 mi West 10.4 mph 18.4 mph N/A   Clear
2:35 AM 41.0 °F 35.8 °F 14.0 °F 33% 29.83 in 10.0 mi WSW 8.1 mph - N/A   Clear
2:55 AM 41.0 °F 36.4 °F 10.4 °F 29% 29.83 in 10.0 mi SW 6.9 mph 16.1 mph N/A   Clear
3:15 AM 39.2 °F 34.2 °F 8.6 °F 28% 29.83 in 10.0 mi WSW 6.9 mph - N/A   Clear
3:35 AM 39.2 °F 37.0 °F 8.6 °F 28% 29.83 in 10.0 mi SSW 3.5 mph - N/A   Clear
3:55 AM 37.4 °F 30.8 °F 10.4 °F 33% 29.82 in 10.0 mi SE 9.2 mph - N/A   Clear
4:15 AM 35.6 °F 28.6 °F 14.0 °F 41% 29.82 in 10.0 mi SE 9.2 mph - N/A   Clear
4:35 AM 35.6 °F 28.6 °F 14.0 °F 41% 29.82 in 10.0 mi SE 9.2 mph - N/A   Clear
4:55 AM 35.6 °F 28.6 °F 15.8 °F 44% 29.82 in 10.0 mi SSE 9.2 mph - N/A   Clear
5:15 AM 35.6 °F 28.0 °F 15.8 °F 44% 29.82 in 10.0 mi SSE 10.4 mph - N/A   Clear
5:35 AM 37.4 °F 29.3 °F 15.8 °F 41% 29.81 in 10.0 mi SSW 12.7 mph 17.3 mph N/A   Clear
5:55 AM 41.0 °F 33.1 °F 15.8 °F 36% 29.82 in 10.0 mi SSW 15.0 mph 20.7 mph N/A   Clear
6:15 AM 41.0 °F 32.2 °F 15.8 °F 36% 29.81 in 10.0 mi South 18.4 mph - N/A   Clear
6:35 AM 41.0 °F 33.1 °F 15.8 °F 36% 29.81 in 10.0 mi SSW 15.0 mph 21.9 mph N/A   Clear
6:55 AM 41.0 °F 32.5 °F 17.6 °F 39% 29.83 in 10.0 mi SSW 17.3 mph 24.2 mph N/A   Clear
7:15 AM 41.0 °F 33.9 °F 19.4 °F 42% 29.82 in 10.0 mi South 12.7 mph - N/A   Clear
7:35 AM 41.0 °F 33.9 °F 23.0 °F 49% 29.83 in 10.0 mi South 12.7 mph - N/A   Clear
7:55 AM 41.0 °F 33.1 °F 24.8 °F 53% 29.82 in 10.0 mi South 15.0 mph 19.6 mph N/A   Clear
8:15 AM 41.0 °F 33.9 °F 24.8 °F 53% 29.83 in 10.0 mi South 12.7 mph - N/A   Clear
8:35 AM 41.0 °F 35.2 °F 26.6 °F 57% 29.84 in 10.0 mi South 9.2 mph - N/A   Clear
8:55 AM 41.0 °F 35.8 °F 26.6 °F 57% 29.84 in 10.0 mi South 8.1 mph - N/A   Clear
9:15 AM 41.0 °F 35.2 °F 28.4 °F 61% 29.86 in 10.0 mi SSE 9.2 mph - N/A   Scattered Clouds
9:35 AM 42.8 °F 37.5 °F 28.4 °F 57% 29.85 in 10.0 mi SSW 9.2 mph - N/A   Mostly Cloudy
9:55 AM 44.6 °F 38.4 °F 32.0 °F 61% 29.85 in 10.0 mi SSW 12.7 mph 16.1 mph N/A   Mostly Cloudy
10:15 AM 44.6 °F 37.8 °F 32.0 °F 61% 29.84 in 10.0 mi SW 15.0 mph - N/A   Scattered Clouds
10:35 AM 46.4 °F 39.2 °F 32.0 °F 57% 29.83 in 10.0 mi SW 18.4 mph 24.2 mph N/A   Scattered Clouds
10:55 AM 46.4 °F 38.3 °F 32.0 °F 57% 29.81 in 10.0 mi SW 23.0 mph 28.8 mph N/A   Partly Cloudy
11:15 AM 44.6 °F 36.6 °F 32.0 °F 61% 29.81 in 10.0 mi SW 19.6 mph 27.6 mph N/A   Partly Cloudy
11:35 AM 46.4 °F 39.8 °F 32.0 °F 57% 29.79 in 10.0 mi SW 16.1 mph 25.3 mph N/A   Clear
11:55 AM 44.6 °F 36.6 °F 32.0 °F 61% 29.77 in 10.0 mi WSW 19.6 mph 27.6 mph N/A   Partly Cloudy
12:15 PM 46.4 °F 39.8 °F 32.0 °F 57% 29.76 in 10.0 mi SW 16.1 mph 24.2 mph N/A   Clear
12:35 PM 44.6 °F 37.8 °F 30.2 °F 57% 29.74 in 10.0 mi SW 15.0 mph 24.2 mph N/A   Clear
12:55 PM 44.6 °F 37.2 °F 30.2 °F 57% 29.74 in 10.0 mi WSW 17.3 mph 25.3 mph N/A   Clear
1:15 PM 44.6 °F 37.2 °F 30.2 °F 57% 29.73 in 10.0 mi SSW 17.3 mph - N/A   Clear
1:35 PM 44.6 °F 37.4 °F 28.4 °F 53% 29.72 in 10.0 mi SW 16.1 mph 20.7 mph N/A   Clear
1:55 PM 44.6 °F 36.9 °F 28.4 °F 53% 29.71 in 10.0 mi SSW 18.4 mph 24.2 mph N/A   Clear
2:15 PM 44.6 °F 37.8 °F 30.2 °F 57% 29.69 in 10.0 mi SSW 15.0 mph 19.6 mph N/A   Clear
2:35 PM 46.4 °F 40.4 °F 28.4 °F 50% 29.70 in 10.0 mi SW 13.8 mph 19.6 mph N/A   Clear
2:55 PM 46.4 °F 40.4 °F 28.4 °F 50% 29.69 in 10.0 mi SSW 13.8 mph 20.7 mph N/A   Partly Cloudy
3:15 PM 46.4 °F 39.2 °F 28.4 °F 50% 29.69 in 10.0 mi SSW 18.4 mph 25.3 mph N/A   Partly Cloudy
3:35 PM 44.6 °F 36.1 °F 28.4 °F 53% 29.70 in 10.0 mi SSW 21.9 mph 26.5 mph N/A   Clear
3:55 PM 44.6 °F 37.4 °F 28.4 °F 53% 29.71 in 10.0 mi SSW 16.1 mph 20.7 mph N/A   Partly Cloudy
4:15 PM 44.6 °F 38.8 °F 30.2 °F 57% 29.71 in 10.0 mi SSW 11.5 mph - N/A   Scattered Clouds
4:35 PM 42.8 °F 37.0 °F 30.2 °F 61% 29.72 in 10.0 mi South 10.4 mph - N/A   Scattered Clouds
4:55 PM 37.4 °F 32.1 °F 28.4 °F 70% 29.72 in 10.0 mi SSE 6.9 mph - N/A   Partly Cloudy
5:15 PM 37.4 °F 30.3 °F 28.4 °F 70% 29.72 in 10.0 mi SSE 10.4 mph - N/A   Clear
5:35 PM 33.8 °F 30.8 °F 26.6 °F 75% 29.72 in 10.0 mi ESE 3.5 mph - N/A   Scattered Clouds
5:55 PM 32.0 °F 28.7 °F 26.6 °F 80% 29.72 in 10.0 mi SSW 3.5 mph - N/A   Overcast
6:15 PM 33.8 °F 29.6 °F 28.4 °F 81% 29.72 in 10.0 mi WSW 4.6 mph - N/A   Overcast
6:35 PM 35.6 °F 32.8 °F 28.4 °F 75% 29.73 in 10.0 mi WNW 3.5 mph - N/A   Scattered Clouds
6:55 PM 37.4 °F 32.1 °F 32.0 °F 81% 29.73 in 10.0 mi West 6.9 mph - N/A   Scattered Clouds
7:15 PM 37.4 °F 34.9 °F 32.0 °F 81% 29.73 in 10.0 mi West 3.5 mph - N/A   Scattered Clouds
7:35 PM 37.4 °F 33.8 °F 32.0 °F 81% 29.72 in 10.0 mi NNW 4.6 mph - N/A   Scattered Clouds
7:55 PM 35.6 °F 32.8 °F 32.0 °F 87% 29.72 in 10.0 mi NE 3.5 mph - N/A   Partly Cloudy
8:15 PM 32.0 °F - 28.4 °F 87% 29.72 in 10.0 mi Calm Calm - N/A   Scattered Clouds
8:35 PM 32.0 °F 27.5 °F 28.4 °F 87% 29.71 in 10.0 mi SSE 4.6 mph - N/A   Mostly Cloudy
8:55 PM 32.0 °F 25.6 °F 28.4 °F 87% 29.71 in 10.0 mi SSE 6.9 mph - N/A   Mostly Cloudy
9:15 PM 32.0 °F 25.6 °F 28.4 °F 87% 29.71 in 10.0 mi South 6.9 mph - N/A   Scattered Clouds
9:35 PM 32.0 °F 24.2 °F 28.4 °F 87% 29.71 in 10.0 mi South 9.2 mph - N/A   Scattered Clouds
9:55 PM 32.0 °F 25.6 °F 28.4 °F 87% 29.70 in 10.0 mi SSE 6.9 mph - N/A   Scattered Clouds
10:15 PM 32.0 °F 28.7 °F 28.4 °F 87% 29.70 in 10.0 mi North 3.5 mph - N/A   Partly Cloudy
10:35 PM 32.0 °F 27.5 °F 28.4 °F 87% 29.69 in 10.0 mi North 4.6 mph - N/A   Partly Cloudy
10:55 PM 32.0 °F 28.7 °F 28.4 °F 87% 29.68 in 10.0 mi North 3.5 mph - N/A   Scattered Clouds
11:15 PM 32.0 °F - 30.2 °F 93% 29.67 in 10.0 mi Calm Calm - N/A   Scattered Clouds
11:35 PM 32.0 °F - 30.2 °F 93% 29.67 in 10.0 mi Calm Calm - N/A   Mostly Cloudy
11:55 PM 32.0 °F - 30.2 °F 93% 29.65 in 10.0 mi Calm Calm - N/A   Mostly Cloudy